This demonstration page uses our WeatherBlox Daily Observations layout. Learn more.

Hourly Observations for April 13, 2016

Temp ( °F °C ) Dew Point ( °F °C ) Humidity (%) Winds ( mph kmh ) Pressure ( in mb ) Visibility ( mi km ) Precip ( " mm )
12:15 am 00:15 Clear 51 10.5 30 -1.1 45 45 S 12 19 30.06 1018 10 16.0934 0 0
12:35 am 00:35 Clear 50 9.8 30 -1.1 47 47 S 12 19 30.06 1018 10 16.0934 0 0
12:55 am 00:55 Clear 50 9.8 30 -1.1 47 47 S 15 24 30.06 1018 10 16.0934 0 0
1:15 am 01:15 Clear 49 9.6 30 -1.2 47 47 S 12 19 30.09 1019 10 16.0934 0 0
1:35 am 01:35 Clear 49 9.6 30 -1.3 47 47 S 12 19 30.09 1019 10 16.0934 0 0
1:55 am 01:55 Clear 49 9.2 30 -1.3 48 48 S 13 20 30.09 1019 10 16.0934 0 0
2:15 am 02:15 Clear 48 9 30 -1.3 49 49 SSW 13 20 30.09 1019 10 16.0934 0 0
2:35 am 02:35 Clear 48 9 29 -1.5 48 48 SSW 13 20 30.06 1018 10 16.0934 0 0
2:55 am 02:55 Clear 47 8.5 29 -1.5 50 50 SSW 10 17 30.06 1018 10 16.0934 0 0
3:15 am 03:15 Clear 46 7.8 29 -1.5 52 52 S 7 11 30.06 1018 10 16.0934 0 0
3:35 am 03:35 Clear 45 7.2 29 -1.6 54 54 SSW 7 11 30.06 1018 10 16.0934 0 0
3:55 am 03:55 Clear 44 6.8 29 -1.6 55 55 S 7 11 30.06 1018 10 16.0934 0 0
4:15 am 04:15 Clear 42 5.7 29 -1.8 59 59 S 6 9 30.09 1019 10 16.0934 0 0
4:35 am 04:35 Clear 42 5.4 28 -2 59 59 S 7 11 30.09 1019 10 16.0934 0 0
4:55 am 04:55 Clear 41 5.1 28 -2 60 60 SSW 5 7 30.09 1019 10 16.0934 0 0
5:15 am 05:15 Clear 40 4.3 28 -2 64 64 S 6 9 30.09 1019 10 16.0934 0 0
5:35 am 05:35 Clear 41 5 29 -1.5 63 63 S 5 7 30.09 1019 10 16.0934 0 0
5:55 am 05:55 Clear 39 3.7 28 -2 67 67 S 5 7 30.09 1019 10 16.0934 0 0
6:15 am 06:15 Clear 37 3 28 -2.1 69 69 S 6 9 30.09 1019 10 16.0934 0 0
6:35 am 06:35 Clear 38 3.1 28 -2 70 70 S 7 11 30.09 1019 10 16.0934 0 0
6:55 am 06:55 Clear 38 3.5 29 -1.7 69 69 S 9 15 30.09 1019 10 16.0934 0 0
7:15 am 07:15 Sunny 40 4.6 30 -1.2 66 66 S 9 15 30.09 1019 10 16.0934 0 0
7:35 am 07:35 Sunny 41 5 31 -0.8 66 66 SSW 7 11 30.09 1019 10 16.0934 0 0
7:55 am 07:55 Sunny 42 5.7 31 -0.5 65 65 SSW 6 9 30.09 1019 10 16.0934 0 0
8:15 am 08:15 Sunny 45 7 32 0 61 61 SSW 7 11 30.06 1018 10 16.0934 0 0
8:35 am 08:35 Sunny 47 8.4 33 0.5 58 58 SW 8 13 30.06 1018 10 16.0934 0 0
8:55 am 08:55 Sunny 49 9.7 35 1.4 57 57 SW 10 17 30.03 1017 10 16.0934 0 0
9:15 am 09:15 Sunny 52 11 36 2.3 55 55 SW 8 13 30.06 1018 10 16.0934 0 0
9:35 am 09:35 Sunny 53 11.9 37 2.8 54 54 SSW 8 13 30.03 1017 10 16.0934 0 0
9:55 am 09:55 Sunny 56 13.3 38 3.4 51 51 SSW 10 17 30 1016 10 16.0934 0 0
10:15 am 10:15 Sunny 58 14.6 39 3.9 49 49 SSW 9 15 30 1016 10 16.0934 0 0
10:35 am 10:35 Sunny 60 15.6 40 4.4 47 47 SW 12 19 30 1016 10 16.0934 0 0
10:55 am 10:55 Sunny 62 16.6 40 4.6 45 45 SSW 13 20 30 1016 10 16.0934 0 0
11:15 am 11:15 Sunny 63 17.4 40 4.6 43 43 SSW 15 24 30 1016 10 16.0934 0 0
11:35 am 11:35 Sunny 65 18.2 41 4.9 42 42 SSW 14 22 29.97 1015 10 16.0934 0 0
11:55 am 11:55 Sunny 67 19.3 41 5.2 40 40 SW 14 22 29.97 1015 10 16.0934 0 0
12:15 pm 12:15 Sunny 68 20.1 41 5.2 38 38 S 16 26 29.94 1014 10 16.0934 0 0
12:35 pm 12:35 Sunny 69 20.8 41 4.9 35 35 SSW 15 24 29.94 1014 10 16.0934 0 0
12:55 pm 12:55 Sunny 70 21 40 4.7 35 35 SSW 16 26 29.94 1014 10 16.0934 0 0
1:15 pm 13:15 Sunny 71 21.6 41 4.8 33 33 S 16 26 29.94 1014 10 16.0934 0 0
1:35 pm 13:35 Sunny 71 21.8 40 4.4 32 32 SSW 13 20 29.94 1014 10 16.0934 0 0
1:55 pm 13:55 Sunny 72 22.3 39 3.7 30 30 S 14 22 29.91 1013 10 16.0934 0 0
2:15 pm 14:15 Sunny 73 22.6 39 3.8 29 29 S 18 30 29.91 1013 10 16.0934 0 0
2:35 pm 14:35 Sunny 73 22.7 38 3.1 28 28 S 13 20 29.91 1013 10 16.0934 0 0
2:55 pm 14:55 Sunny 73 23 37 2.8 27 27 S 14 22 29.91 1013 10 16.0934 0 0
3:15 pm 15:15 Sunny 74 23.3 37 2.8 26 26 S 10 17 29.88 1012 10 16.0934 0 0
3:35 pm 15:35 Sunny 74 23.1 37 2.5 26 26 SSW 15 24 29.88 1012 10 16.0934 0 0
3:55 pm 15:55 Sunny 74 23.3 36 2.4 25 25 S 15 24 29.85 1011 10 16.0934 0 0
4:15 pm 16:15 Sunny 74 23.1 37 2.5 26 26 SSE 14 22 29.85 1011 10 16.0934 0 0
4:35 pm 16:35 Sunny 74 23.2 35 1.9 25 25 S 15 24 29.85 1011 10 16.0934 0 0
4:55 pm 16:55 Sunny 74 23.1 36 2.2 25 25 S 16 26 29.85 1011 10 16.0934 0 0
5:15 pm 17:15 Sunny 74 23.5 35 1.7 24 24 S 10 17 29.85 1011 10 16.0934 0 0
5:35 pm 17:35 Sunny 74 23.3 35 1.4 24 24 S 16 26 29.85 1011 10 16.0934 0 0
5:55 pm 17:55 Sunny 74 23.1 34 1.1 23 23 S 15 24 29.85 1011 10 16.0934 0 0
6:15 pm 18:15 Sunny 73 23 35 1.4 24 24 S 13 20 29.85 1011 10 16.0934 0 0
6:35 pm 18:35 Sunny 73 22.7 34 1 24 24 S 13 20 29.88 1012 10 16.0934 0 0
6:55 pm 18:55 Sunny 72 22.4 34 1.2 25 25 S 13 20 29.88 1012 10 16.0934 0 0
7:15 pm 19:15 Sunny 72 22 34 1.2 25 25 S 12 19 29.88 1012 10 16.0934 0 0
7:35 pm 19:35 Sunny 71 21.5 33 0.8 25 25 S 10 17 29.88 1012 10 16.0934 0 0
7:55 pm 19:55 Sunny 68 20.2 33 0.7 27 27 S 9 15 29.88 1012 10 16.0934 0 0
8:15 pm 20:15 Clear 65 18.5 33 0.7 30 30 S 8 13 29.91 1013 10 16.0934 0 0
8:35 pm 20:35 Clear 62 16.9 33 0.6 33 33 S 6 9 29.91 1013 10 16.0934 0 0
8:55 pm 20:55 Clear 61 15.9 33 0.5 35 35 S 8 13 29.91 1013 10 16.0934 0 0
9:15 pm 21:15 Clear 59 15.2 33 0.7 38 38 S 7 11 29.94 1014 10 16.0934 0 0
9:35 pm 21:35 Clear 58 14.3 33 0.8 40 40 S 7 11 29.94 1014 10 16.0934 0 0
9:55 pm 21:55 Clear 57 13.9 34 1 42 42 S 7 11 29.94 1014 10 16.0934 0 0
10:15 pm 22:15 Clear 54 12 33 0.7 46 46 SSE 8 13 29.97 1015 10 16.0934 0 0
10:35 pm 22:35 Clear 54 12.2 34 1.1 47 47 SSE 7 11 29.97 1015 10 16.0934 0 0
10:55 pm 22:55 Clear 53 11.7 34 1.1 48 48 S 8 13 29.97 1015 10 16.0934 0 0
11:15 pm 23:15 Clear 52 11 35 1.4 52 52 S 8 13 29.97 1015 10 16.0934 0 0
11:35 pm 23:35 Clear 52 11.2 35 1.8 53 53 S 9 15 29.97 1015 10 16.0934 0 0
11:55 pm 23:55 Clear 52 11.2 36 2.2 54 54 S 9 15 29.97 1015 10 16.0934 0 0

Powered by AerisWeather